Home > Weather > Talkeetna > Past weeks

Flag for USA Past Weather in Talkeetna, Alaska, USA — Yesterday and Last 2 Weeks

Now
64 °F

Sunny.


Feels Like: 64 °F
Forecast: 41 / 70 °F
Wind: 6 mph from Southwest

Location: Talkeetna Weather Reporting Station

Current Time: May 31, 2016 at 9:32:07 PM

Latest Report: May 31, 2016 at 8:53 PM


Visibility: 10 mi

Pressure: 29.72 "Hg

Humidity: 49%

Dew Point: 44 °F

Location of TalkeetnaLocation

Past Weather in Talkeetna — Graph

°F

Talkeetna Temperature Yesterday

Maximum temperature yesterday: 66 °F (at 6:53 PM)
Minimum temperature yesterday: 51 °F (at 7:53 AM)
Average temperature yesterday: 58 °F

High & Low Weather Summary for the Past Weeks

 TemperatureHumidityPressure
High77 °F (May 28, 5:53 PM)100% (May 19, 6:02 AM)30.22 "Hg (May 19, 6:02 AM)
Low36 °F (May 25, 4:53 AM)17% (May 28, 5:53 PM)29.63 "Hg (May 17, 11:53 AM)
Average55 °F64%29.99 "Hg
* Reported May 16 7:53 PM — May 31 7:53 PM, Talkeetna, Weather by CustomWeather, © 2016

Note: Actual official high and low records may vary slightly from our data, if they occured in-between our weather recording intervals... More about our weather records

Advertising

Talkeetna Weather History for the Previous 24 Hours

Scroll right to see more
 ConditionsComfort  
Time TempWeatherWind HumidityBarometerVisibility
7:53 PM
Tue, May 31
65 °FPartly sunny.14 mph44%29.73 "Hg10 mi
6:53 PM68 °FPartly sunny.12 mph36%29.75 "Hg10 mi
5:53 PM69 °FSunny.13 mph33%29.76 "Hg10 mi
4:53 PM70 °FSunny.10 mph38%29.78 "Hg10 mi
3:53 PM69 °FScattered clouds.10 mph36%29.79 "Hg10 mi
2:53 PM69 °FScattered clouds.9 mph36%29.81 "Hg10 mi
1:53 PM68 °FSunny.6 mph39%29.83 "Hg10 mi
12:53 PM65 °FSunny.6 mph42%29.86 "Hg10 mi
11:53 AM64 °FSunny.No wind43%29.88 "Hg10 mi
10:53 AM60 °FSunny.5 mph52%29.91 "Hg10 mi
9:53 AM56 °FSunny.3 mph60%29.94 "Hg10 mi
8:53 AM52 °FSunny.No wind66%29.97 "Hg10 mi
7:53 AM50 °FSunny.No wind68%30.00 "Hg10 mi
6:53 AM46 °FSunny.3 mph79%30.02 "Hg10 mi
5:53 AM41 °FSunny.No wind93%30.03 "Hg10 mi
4:53 AM40 °FClear.No wind93%30.05 "Hg10 mi
3:53 AM42 °FClear.No wind92%30.06 "Hg10 mi
2:53 AM43 °FClear.No wind93%30.07 "Hg10 mi
1:53 AM45 °FClear.No wind93%30.07 "Hg10 mi
12:53 AM48 °FClear.No wind86%30.07 "Hg10 mi
11:53 PM
Mon, May 30
52 °FPassing clouds.No wind80%30.08 "Hg10 mi
10:53 PM57 °FSunny.No wind69%30.08 "Hg10 mi
9:53 PM63 °FSunny.No wind45%30.07 "Hg10 mi
Weather by CustomWeather, © 2016

See weather overviewHow to use our weather pages